Regional Weather Roundup
Issued by NWS

Home | Current Version | Previous Version | Graphics & Text | Print | Product List | Glossary On
Versions: 1 2 3 4 5 6 7 8 9 10 11 12 13 14 15 16 17 18 19 20 21 22 23 24 25 26 27 28 29 30 31 32 33 34 35 36 37 38 39 40 41 42 43 44 45 46 47 48 49 50
000
ASUS43 KDTX 271810
RWRMI
MICHIGAN HOURLY REGIONAL WEATHER ROUNDUP
NATIONAL WEATHER SERVICE DETROIT/PONTIAC MI
200 PM EDT WED AUG 27 2014

NOTE: "FAIR" INDICATES FEW OR NO CLOUDS BELOW 12,000 FEET WITH NO
SIGNIFICANT WEATHER AND/OR OBSTRUCTION TO VISIBILITY.

MIZ047>049-052>055-059>063-066>070-074>076-081>083-271900-
SOUTHEAST LOWER MICHIGAN

CITY           SKY/WX    TMP DP  RH WIND       PRES   REMARKS
ADRIAN         MOSUNNY   80  62  54 NE3       30.11F
6HR MIN TEMP:  64; 6HR MAX TEMP:  80;

ALMA           MOSUNNY   73  57  57 N7        30.15F
ANN ARBOR      MOSUNNY   79  61  53 N9        30.11F
BAD AXE        SUNNY     69  56  63 N7        30.14F
6HR MIN TEMP:  57; 6HR MAX TEMP:  70;

CARO           MOSUNNY   70  59  69 N7        30.14S
DETROIT CITY   MOSUNNY   78  59  51 N3        30.11F
6HR MIN TEMP:  67; 6HR MAX TEMP:  78;

DETROIT        PTSUNNY   74  61  63 NW6       30.11F
6HR MIN TEMP:  67; 6HR MAX TEMP:  78;

FLINT          MOSUNNY   76  58  53 MISG      30.14S
6HR MIN TEMP:  65; 6HR MAX TEMP:  76;

GROSSE ILE     MOSUNNY   75  64  69 NE7       30.09F
HILLSDALE      SUNNY     76  62  61 CALM      30.13S
HOWELL         MOSUNNY   73  60  63 N7        30.14S

CITY           SKY/WX    TMP DP  RH WIND       PRES   REMARKS
JACKSON        MOSUNNY   75  62  64 VRB6      30.13S
6HR MIN TEMP:  63; 6HR MAX TEMP:  76;

LAMBERTVILLE   MOSUNNY   79  63  57 CALM      30.10F
LANSING        PTSUNNY   74  60  61 VRB5      30.14F
6HR MIN TEMP:  61; 6HR MAX TEMP:  74;

LAPEER         MOCLDY    72  56  55 N3        30.14S
MASON          MOSUNNY   72  60  66 N3        30.14S
MONROE         MOSUNNY   77  63  61 W3        30.09S
MT. CLEMENS    MOSUNNY   75  58  57 VRB6      30.10F
6HR MIN TEMP:  64; 6HR MAX TEMP:  75;

PONTIAC        PTSUNNY   74  58  57 NW7       30.12S
6HR MIN TEMP:  63; 6HR MAX TEMP:  74;

PORT HOPE        N/A     70  56  61 CALM      30.13F
6HR MIN TEMP:  63; 6HR MAX TEMP:  70;

PORT HURON     PTSUNNY   72  59  64 NW3       30.12S
TRI CITIES     MOSUNNY   74  56  53 W6        30.14F
6HR MIN TEMP:  62; 6HR MAX TEMP:  74; 6HR PCP: TRACE;

TROY           MOSUNNY   77  58  51 W8        30.13S
SAGINAW HB     MOSUNNY   72  57  60 N5        30.14S
$$
MIZ043>046-050>051-056>058-064>065-071>073-077>080-271900-
SOUTHWEST LOWER MICHIGAN

CITY           SKY/WX    TMP DP  RH WIND       PRES   REMARKS
BATTLE CREEK   MOSUNNY   75  59  57 N8        30.15S
6HR MIN TEMP:  62; 6HR MAX TEMP:  76;

BENTON HARBOR  SUNNY     73  58  59 NW8       30.15S
6HR MIN TEMP:  60; 6HR MAX TEMP:  75;

BIG RAPIDS     MOSUNNY   72  56  57 NW8       30.16R
6HR MIN TEMP:  58; 6HR MAX TEMP:  73;

COLDWATER      SUNNY     79  61  52 NW6       30.12S
6HR MIN TEMP:  64; 6HR MAX TEMP:  80;

FREMONT        FAIR      74  52  45 NW3       30.15F
HOLLAND        MOSUNNY   75  58  55 NW6       30.17R
6HR MIN TEMP:  63; 6HR MAX TEMP:  78;

GRAND RAPIDS   PTSUNNY   75  61  61 VRB3      30.15F
6HR MIN TEMP:  62; 6HR MAX TEMP:  76;

IONIA          FAIR      73  59  60 CALM      30.14F
KALAMAZOO      SUNNY     79  57  46 N10       30.14S
6HR MIN TEMP:  61; 6HR MAX TEMP:  79;

LUDINGTON      SUNNY     72  52  50 NE9       30.17S
6HR MIN TEMP:  57; 6HR MAX TEMP:  73;

MARSHALL       PTSUNNY   74  62  66 NE7       30.13F
MOUNT PLEASANT PTSUNNY   74  56  51 W3        30.14F
6HR MIN TEMP:  57; 6HR MAX TEMP:  75;

MUSKEGON       PTSUNNY   77  60  55 W8        30.16F
6HR MIN TEMP:  63; 6HR MAX TEMP:  77;

SOUTH HAVEN    SUNNY     75  62  64 NW10      30.15S
$$
MIZ016>042-271900-
NORTHERN LOWER MICHIGAN

CITY           SKY/WX    TMP DP  RH WIND       PRES   REMARKS
ALPENA         PTSUNNY   68  50  52 W9        30.13F
6HR MIN TEMP:  54; 6HR MAX TEMP:  68; 6HR PCP: TRACE;

BEAVER ISLAND  CLOUDY    67  51  57 W9        30.18S
6HR MIN TEMP:  57; 6HR MAX TEMP:  67;

BELLAIRE       PTSUNNY   67  51  56 W8        30.16F
6HR MIN TEMP:  56; 6HR MAX TEMP:  67;

CADILLAC       PTSUNNY   68  53  58 CALM      30.17S
CHARLEVOIX     SUNNY     66  51  58 NW12      30.20F
6HR MIN TEMP:  61; 6HR MAX TEMP:  66;

FRANKFORT      MOSUNNY   67  53  58 N7        30.18S
GAYLORD        PTSUNNY   65  49  56 NW9       30.16F
6HR MIN TEMP:  52; 6HR MAX TEMP:  66; 6HR PCP: TRACE;

GRAYLING       MOSUNNY   68  53  58 NW7       30.17F
6HR MIN TEMP:  55; 6HR MAX TEMP:  69;

HARBOR SPRINGS PTSUNNY   67  48  50 W3        30.16F
HOUGHTON LAKE  PTSUNNY   68  50  52 N6        30.16F
6HR MIN TEMP:  55; 6HR MAX TEMP:  69;

MANISTEE       SUNNY     68  52  56 NW10      30.19S
OSCODA         MOSUNNY   70  50  49 NW13      30.13S
PELLSTON       PTSUNNY   68  47  46 NW18G24   30.16F
6HR MIN TEMP:  53; 6HR MAX TEMP:  69; 6HR PCP:  0.01;

TRAVERSE CITY  PTSUNNY   67  51  56 N9        30.16F
6HR MIN TEMP:  59; 6HR MAX TEMP:  70;

$$
MIZ007>008-015-271900-
EASTERN UPPER MICHIGAN

CITY           SKY/WX    TMP DP  RH WIND       PRES   REMARKS
KINROSS        CLOUDY    64  46  52 NW21      30.13F
6HR MIN TEMP:  48; 6HR MAX TEMP:  64;

MACKINAC ISLAN CLOUDY    61  50  68 W13G18    30.15S
6HR MIN TEMP:  55; 6HR MAX TEMP:  63;

NEWBERRY       PTSUNNY   63  46  54 NW13G24   30.16S
S. S. MARIE    PTSUNNY   62  48  60 NW16G24   30.14R
6HR MIN TEMP:  54; 6HR MAX TEMP:  64; 6HR PCP:  0.01;

MUNISING         N/A     65  49  56 NW13      30.19S
6HR MIN TEMP:  55; 6HR MAX TEMP:  65;

$$
MIZ004>006-011>014-085-271900-
CENTRAL UPPER MICHIGAN

CITY           SKY/WX    TMP DP  RH WIND       PRES   REMARKS
MANISTIQUE     CLOUDY    67  49  51 NW9       30.17F
ESCANABA       CLOUDY    64  52  63 SW3       30.18F
6HR MIN TEMP:  54; 6HR MAX TEMP:  64;

MENOMINEE      CLOUDY    66  52  59 S6        30.18F
6HR MIN TEMP:  55; 6HR MAX TEMP:  66;

SAWYER-GWINN   MOSUNNY   63  48  59 NE7       30.19S
$$
MIZ001>003-009>011-084-271900-
WESTERN UPPER MICHIGAN

CITY           SKY/WX    TMP DP  RH WIND       PRES   REMARKS
IRON MOUNTAIN  MOSUNNY   68  48  48 N7        30.18F
6HR MIN TEMP:  54; 6HR MAX TEMP:  68;

HOUGHTON       PTSUNNY   63  44  50 W10       30.18F
6HR MIN TEMP:  51; 6HR MAX TEMP:  65;

COPPER HARBOR    N/A     59  49  69 N10       30.17F
6HR MIN TEMP:  55; 6HR MAX TEMP:  60;

IRONWOOD       PTSUNNY   61  48  63 W6        30.20S
$$

ABBREVIATIONS USED IN REMARKS
   TC - TEMPERATURE IN CELSIUS
  WCI - WIND CHILL INDEX
   HX - HEAT INDEX
  VSB - VISIBILITY




USA.gov is the U.S. government's official web portal to all federal, state and local government web resources and services.